Home   Weather   Porta Westfalica   Past weeks

Flag for Germany Past Weather in Porta Westfalica, North Rhine-Westphalia, Germany — Yesterday and Last 2 Weeks

Now
52 °F

Partly sunny.


Feels Like: 49 °F
Forecast: 43 / 48 °F
Wind: 8 mph from West

Location: Bueckeburg

Current Time: Dec 8, 2016 at 3:28:07 pm

Latest Report: Dec 8, 2016 at 2:20 pm


Visibility: N/A

Pressure: 30.27 "Hg

Humidity: 47%

Dew Point: 32 °F

Location of Porta WestfalicaLocation

Past Weather in Porta Westfalica — Graph

°F

Porta Westfalica Temperature Yesterday

Maximum temperature yesterday: 48 °F (at 9:20 pm)
Minimum temperature yesterday: 28 °F (at 12:20 am)
Average temperature yesterday: 37 °F

High & Low Weather Summary for the Past Weeks

 TemperatureHumidityPressure
High54 °F (Dec 8, 1:20 pm)100% (Nov 23, 4:58 pm)30.60 "Hg (Nov 23, 4:58 pm)
Low21 °F (Nov 29, 3:20 am)44% (Dec 8, 1:20 pm)30.01 "Hg (Nov 27, 12:20 am)
Average35 °F86%30.30 "Hg
* Reported Nov 23 1:20 pm — Dec 8 1:20 pm, Porta Westfalica, Weather by CustomWeather, © 2016

Note: Actual official high and low records may vary slightly from our data, if they occured in-between our weather recording intervals... More about our weather records

Advertising

Porta Westfalica Weather History for the Previous 24 Hours

Scroll right to see more
 ConditionsComfort  
Time TempWeatherWind HumidityBarometerVisibility
1:20 pm
Thu, Dec 8
54 °FBroken clouds.10 mph44%30.30 "HgN/A
12:20 pm52 °FPartly sunny.12 mph50%30.30 "HgN/A
11:20 am52 °FBroken clouds.13 mph50%30.30 "HgN/A
10:20 am50 °FBroken clouds.16 mph54%30.33 "HgN/A
9:20 am48 °FPartly sunny.17 mph58%30.33 "HgN/A
8:20 am48 °FPartly sunny.14 mph58%30.33 "HgN/A
7:20 am48 °FPassing clouds.13 mph62%30.33 "HgN/A
6:20 am48 °FPassing clouds.13 mph58%30.33 "HgN/A
5:20 am48 °FCool.16 mph58%30.33 "HgN/A
4:20 am48 °FCool.15 mph62%30.33 "HgN/A
3:20 am48 °FCool.17 mph62%30.33 "HgN/A
2:20 am48 °FCool.13 mph62%30.36 "HgN/A
1:20 am48 °FCool.15 mph62%30.33 "HgN/A
12:20 am48 °FCool.18 mph66%30.33 "HgN/A
12:00 am50 °FPassing clouds.15 mph62%30.36 "HgN/A
11:20 pm
Wed, Dec 7
48 °FPassing clouds.14 mph66%30.36 "HgN/A
10:20 pm48 °FPassing clouds.14 mph66%30.36 "HgN/A
9:20 pm48 °FPassing clouds.12 mph66%30.36 "HgN/A
8:20 pm43 °FOvercast.10 mph76%30.36 "HgN/A
7:20 pm43 °FPassing clouds.15 mph76%30.36 "HgN/A
6:20 pm45 °FPassing clouds.8 mph76%30.36 "HgN/A
5:20 pm43 °FPassing clouds.14 mph76%30.36 "HgN/A
4:20 pm41 °FPartly cloudy.9 mph76%30.36 "HgN/A
3:20 pm41 °FPartly sunny.8 mph76%30.36 "HgN/A
Weather by CustomWeather, © 2016

See weather overviewHow to use our weather pages